Regional Weather Roundup
Issued by NWS

Home | Current Version | Previous Version | Graphics & Text | Print | Product List | Glossary On
Versions: 1 2 3 4 5 6 7 8 9 10 11 12 13 14 15 16 17 18 19 20 21 22 23 24 25 26 27 28 29 30 31 32 33 34 35 36 37 38 39 40 41 42 43 44 45 46 47 48 49 50
000
ASUS45 KPSR 061700
RWRAZ

ARIZONA REGIONAL HOURLY WEATHER ROUNDUP
NATIONAL WEATHER SERVICE PHOENIX AZ
1000 AM MST FRI MAR 06 2015

NOTE: FAIR INDICATES FEW OR NO CLOUDS BELOW 12,000 FEET WITH NO
SIGNIFICANT WEATHER AND/OR OBSTRUCTIONS TO VISIBILITY.

AZZ001>003-036-061800-
NORTHWEST ARIZONA

CITY           SKY/WX    TMP DP  RH WIND       PRES   REMARKS
KINGMAN        SUNNY     54  25  32 N14       30.31S
$$

AZZ004>008-015-016-018-061800-
NORTH CENTRAL ARIZONA

CITY           SKY/WX    TMP DP  RH WIND       PRES   REMARKS
GRAND CANYON     N/A    N/A N/A N/A MISG      30.40R
PRESCOTT       SUNNY     46  16  30 N6        30.33S
FLAGSTAFF      NOT AVBL
PAYSON         SUNNY     54  10  17 VRB6G13   30.32S
PAGE           SUNNY     43  26  51 NW3       30.45R
$$

AZZ009>014-017-061800-
NORTHEAST ARIZONA

CITY           SKY/WX    TMP DP  RH WIND       PRES   REMARKS
WINSLOW        NOT AVBL
SAINT JOHNS    SUNNY     42  12  29 CALM      30.37F
WINDOW ROCK    SUNNY     40  17  39 CALM      30.41F
$$

AZZ023-061800-
GREATER PHOENIX AREA

CITY           SKY/WX    TMP DP  RH WIND       PRES   REMARKS
PHOENIX        SUNNY     67  19  16 E17G26    30.16S
GLENDALE       SUNNY     64  30  27 E3        30.19S
DEER VALLEY    SUNNY     70  13  11 E6        30.16F
SCOTTSDALE     SUNNY     66  21  18 S3        30.18F
MESA-FALCON    SUNNY     64  16  15 NE17      30.16F
MESA-GATEWAY   SUNNY     66  25  20 VRB5      30.19R
CHANDLER       SUNNY     66  23  19 NE12      30.17F
$$

AZZ027-028-061800-
SOUTHWEST MARICOPA COUNTY AND PINAL COUNTY

CITY           SKY/WX    TMP DP  RH WIND       PRES   REMARKS
CASA GRANDE    SUNNY     64  21  19 E24G31    30.16R
$$

AZZ503-504-507>509-061800-
SOUTHEAST ARIZONA

CITY           SKY/WX    TMP DP  RH WIND       PRES   REMARKS
TUCSON         SUNNY     63  19  18 NE8       30.17F
RYAN FIELD       N/A     63  21  20 E17G28    30.15S
NOGALES        SUNNY     61  27  27 E18       30.15S
SIERRA VISTA   SUNNY     54  25  32 SE18      30.23S
SAFFORD        SUNNY     51  22  31 SE8       30.33F
$$

AZZ020-021-025-026-031-061800-
SOUTHWEST ARIZONA

CITY           SKY/WX    TMP DP  RH WIND       PRES   REMARKS
YUMA           SUNNY     68  28  22 N17G23    30.12R
$$

CAZ031-033-041-043-047-048-061-061800-
SOUTHERN CALIFORNIA

CITY           SKY/WX    TMP DP  RH WIND       PRES   REMARKS
DOWNTOWN L.A.  SUNNY     68  30  24 CALM      30.15R
L.A. AIRPORT   SUNNY     67  24  19 NE6       30.16R
SAN DIEGO      SUNNY     63  31  30 CALM      30.13F
BURBANK        SUNNY     64  24  21 SE3       30.16R
ONTARIO        SUNNY     69  24  18 NW9G21    30.15F
RIVERSIDE      SUNNY     67  25  20 E6        30.18S
PALM SPRINGS   SUNNY     74  15  10 NW7       30.21S
EL CENTRO NAS  SUNNY     70  32  24 NW7       30.14S
IMPERIAL       SUNNY     68  39  34 NW9       30.14S
BLYTHE         SUNNY     67  26  21 N18       30.19S
$$

NVZ020-UTZ003-061800-
SOUTHERN NEVADA-UTAH

CITY           SKY/WX    TMP DP  RH WIND       PRES   REMARKS
LAS VEGAS      NOT AVBL
SALT LAKE CITY MOSUNNY   41  25  53 SE7       30.47R
$$

NMZ009-TXZ055-061800-
NEW MEXICO-WEST TEXAS

CITY           SKY/WX    TMP DP  RH WIND       PRES   REMARKS
ALBUQUERQUE    SUNNY     43  16  33 N6        30.42S
EL PASO        MOSUNNY   46  20  35 CALM      30.41S
$$


........................KEY........................
SKY/WX - SKY CONDITION/WEATHER
TMP    - TEMPERATURE IN FAHRENHEIT
DP     - DEW POINT IN FAHRENHEIT
RH     - RELATIVE HUMIDITY IN PERCENT
WIND   - DIRECTION AND SPEED IN MILES PER HOUR (MPH)
VRB    - VARIABLE WIND DIRECTION
PRES   - MEAN SEA LEVEL PRESSURE IN INCHES OF MERCURY
         F - FALLING PRESSURE   R - RISING PRESSURE
         S - STEADY PRESSURE
VSB    - VISIBILITY IN MILES
HX     - HEAT INDEX IN FAHRENHEIT
WCI    - WIND CHILL INDEX IN FAHRENHEIT
TC     - TEMPERATURE IN CELSIUS WHICH IS ALSO KNOWN AS
         TEMPERATURE IN CENTIGRADE
AFB    - AIR FORCE BASE
         LUKE AFB IS LUKE AIR FORCE BASE
         DAVIS-MONTHAN IS DAVIS-MONTHAN AIR FORCE BASE
NAS    - NAVAL AIR STATION
         EL CENTRO NAS IS EL CENTRO NAVAL AIR STATION
N/A    - NOT AVAILABLE




USA.gov is the U.S. government's official web portal to all federal, state and local government web resources and services.